CW2654 Weather Reports


time (UTC)temp
C
wind
direction
speed
KPH
gust
KPH
rain 1hr
cm
rain 24hr
cm
rain mn
cm
humidity
%
barometer
mb
20260901021600 23 0 0.0 6.4 0.00 0.00 0.00 63 1008.4
20260901014606 23 0 0.0 1.6 0.00 0.00 0.00 64 1008.1
20260901013123 24 0 0.0 1.6 0.00 0.00 0.00 61 1008.3
20260901011559 25 0 0.0 0.0 0.00 0.00 0.00 57 1008.1
20260901010124 25 0 0.0 0.0 0.00 0.00 0.00 55 1008.0
20260901004615 26 0 0.0 1.6 0.00 0.00 0.00 53 1008.1
20260901003102 26 0 0.0 1.6 0.00 0.00 0.00 46 1008.1
20260901001601 26 0 0.0 6.4 0.00 0.00 0.00 45 1008.1
20260901000106 26 0 0.0 6.4 0.00 0.00 0.00 46 1008.1
20260831234633 26 0 0.0 4.8 0.00 0.00 0.00 47 1008.2
20260831233104 26 0 0.0 6.4 0.00 0.00 0.00 44 1008.1
20260831231602 26 234 0.0 6.4 0.00 0.00 0.00 44 1008.1
20260831230100 26 352 3.2 11.3 0.00 0.00 0.00 41 1008.1
20260831224604 27 318 1.6 9.7 0.00 0.00 0.00 43 1008.1
20260831223103 27 22 0.0 20.9 0.00 0.00 0.00 43 1008.2
20260831221601 27 0 1.6 16.1 0.00 0.00 0.00 38 1008.4
20260831220100 27 0 0.0 9.7 0.00 0.00 0.00 40 1008.5
20260831214618 27 0 1.6 14.5 0.00 0.00 0.00 35 1008.6
20260831213104 27 0 0.0 17.7 0.00 0.00 0.00 36 1008.6
20260831211602 26 304 0.0 17.7 0.00 0.00 0.00 36 1008.5
20260831210100 26 0 0.0 14.5 0.00 0.00 0.00 37 1008.5
20260831204607 26 26 0.0 16.1 0.00 0.00 0.00 41 1008.7
20260831203103 26 327 0.0 16.1 0.00 0.00 0.00 40 1008.8
20260831201615 25 352 0.0 14.5 0.00 0.00 0.00 39 1009.1
20260831200100 25 36 0.0 17.7 0.00 0.00 0.00 42 1009.3
20260831194604 25 329 0.0 8.0 0.00 0.00 0.00 43 1009.4
20260831193131 25 0 0.0 12.9 0.00 0.00 0.00 47 1009.5
20260831191558 24 0 3.2 20.9 0.00 0.00 0.00 45 1009.7
20260831190101 23 325 0.0 12.9 0.00 0.00 0.00 46 1009.9
20260831184606 23 271 0.0 8.0 0.00 0.00 0.00 45 1010.1
20260831183106 22 0 4.8 17.7 0.00 0.00 0.00 46 1010.2
20260831181612 22 318 1.6 14.5 0.00 0.00 0.00 51 1010.5
20260831180105 21 5 1.6 16.1 0.00 0.00 0.00 52 1010.8
20260831174602 20 0 1.6 16.1 0.00 0.00 0.00 55 1010.7
20260831173105 20 0 0.0 9.7 0.00 0.00 0.00 62 1010.9
20260831171607 18 338 1.6 16.1 0.00 0.00 0.00 65 1011.0
20260831170107 17 0 3.2 14.5 0.00 0.00 0.00 70 1011.1
20260831164613 16 323 1.6 8.0 0.00 0.00 0.00 76 1011.1
20260831163106 15 0 0.0 8.0 0.00 0.00 0.00 81 1011.2
20260831161610 15 5 1.6 17.7 0.00 0.00 0.00 84 1011.3
20260831160111 13 298 1.6 12.9 0.00 0.00 0.00 87 1011.5
20260831154629 12 264 0.0 4.8 0.00 0.00 0.00 93 1011.8
20260831153101 11 0 0.0 6.4 0.00 0.00 0.00 98 1011.6
20260831151608 10 0 0.0 0.0 0.00 0.00 0.00 98 1011.8
20260831150107 9 0 0.0 0.0 0.00 0.00 0.00 98 1011.8
20260831144604 8 0 0.0 4.8 0.00 0.00 0.00 98 1012.1
20260831143107 8 0 0.0 0.0 0.00 0.00 0.00 98 1011.9
20260831141607 7 0 0.0 0.0 0.00 0.00 0.00 97 1012.0
20260831134607 7 0 0.0 3.2 0.00 0.00 0.00 97 1011.9
20260831133102 7 0 0.0 3.2 0.00 0.00 0.00 97 1011.9
20260831131603 7 0 0.0 4.8 0.00 0.00 0.00 97 1012.0
20260831130111 7 0 0.0 1.6 0.00 0.00 0.00 97 1012.1
20260831124609 7 108 0.0 4.8 0.00 0.00 0.00 97 1012.1
20260831123102 7 0 0.0 3.2 0.00 0.00 0.00 97 1012.2
20260831121609 7 0 0.0 4.8 0.00 0.00 0.00 97 1012.3
20260831120103 8 0 0.0 4.8 0.00 0.00 0.00 97 1012.3
20260831114602 8 0 0.0 4.8 0.00 0.00 0.00 97 1012.5
20260831113102 8 0 0.0 3.2 0.00 0.00 0.00 96 1012.5
20260831111605 8 112 0.0 3.2 0.00 0.00 0.00 97 1012.9
20260831104605 8 0 0.0 0.0 0.00 0.00 0.00 96 1012.9
20260831103100 8 0 0.0 0.0 0.00 0.00 0.00 96 1012.9
20260831101606 8 0 0.0 3.2 0.00 0.00 0.00 96 1013.2
20260831100121 8 0 0.0 3.2 0.00 0.00 0.00 96 1013.2
20260831094601 8 0 0.0 3.2 0.00 0.00 0.00 96 1013.3
20260831093120 8 0 0.0 1.6 0.00 0.00 0.00 96 1013.5
20260831091605 8 0 0.0 4.8 0.00 0.00 0.00 96 1013.6
20260831090129 9 0 0.0 0.0 0.00 0.00 0.00 95 1013.7
20260831084604 9 0 0.0 0.0 0.00 0.00 0.00 95 1013.9
20260831083112 9 0 0.0 3.2 0.00 0.00 0.00 95 1014.0
20260831081606 9 108 0.0 3.2 0.00 0.00 0.00 95 1014.2
20260831080129 10 0 0.0 0.0 0.00 0.00 0.00 95 1014.3
20260831074603 10 0 0.0 0.0 0.00 0.00 0.00 94 1014.7
20260831073100 10 0 0.0 3.2 0.00 0.00 0.00 93 1014.7
20260831071605 10 0 0.0 4.8 0.00 0.00 0.00 94 1014.8
20260831070104 10 112 0.0 3.2 0.00 0.00 0.00 93 1014.9
20260831064608 10 109 0.0 4.8 0.00 0.00 0.00 93 1015.2
20260831063113 10 109 1.6 6.4 0.00 0.00 0.00 94 1015.3
20260831061601 10 109 1.6 4.8 0.00 0.00 0.00 93 1015.4
20260831060106 11 110 1.6 3.2 0.00 0.00 0.00 93 1015.5
20260831054611 11 0 0.0 4.8 0.00 0.00 0.00 92 1015.6
20260831053132 11 0 0.0 4.8 0.00 0.00 0.00 92 1015.8
20260831051602 11 110 1.6 4.8 0.00 0.00 0.00 91 1015.9
20260831050103 11 0 0.0 4.8 0.00 0.00 0.00 90 1016.0
20260831044644 12 0 0.0 4.8 0.00 0.00 0.00 90 1016.1
20260831043103 12 109 0.0 4.8 0.00 0.00 0.00 90 1016.1
20260831041609 12 107 0.0 3.2 0.00 0.00 0.00 88 1016.2
20260831040104 13 0 0.0 4.8 0.00 0.00 0.00 87 1016.4
20260831034609 13 108 1.6 4.8 0.00 0.00 0.00 85 1016.4
20260831033109 14 103 0.0 3.2 0.00 0.00 0.00 84 1016.3
20260831031559 15 0 0.0 4.8 0.00 0.00 0.00 83 1016.3
20260831030104 15 0 0.0 4.8 0.00 0.00 0.00 81 1016.4
20260831024602 16 0 0.0 3.2 0.00 0.00 0.00 77 1016.5
20260831023107 17 0 0.0 4.8 0.00 0.00 0.00 73 1016.6